Weather History for Montpellier, France

Change the Weather History Date:

Friday, July 5, 2013

  Actual Average Record
Temperature  
Mean Temperature 79 °F -  
Max Temperature 90 °F 81 °F 96 °F (2010)
Min Temperature 68 °F 65 °F 59 °F (2002)
Cooling Degree Days 14    
Growing Degree Days 29 (Base 50)    
Moisture  
Dew Point 55 °F    
Average Humidity 45    
Maximum Humidity 69    
Minimum Humidity 21    
Precipitation  
Precipitation 0.00 in - - ()
Sea Level Pressure  
Sea Level Pressure 30.18 in    
Wind  
Wind Speed 10 mph ()    
Max Wind Speed 21 mph    
Max Gust Speed -    
Visibility 6.2 miles    
Events      
Averages and records for this station are not official NWS values.
T = Trace of Precipitation, MM = Missing Value Source: Averaged Metar Reports

Daily Weather History Graph

Daily Weather History Graph

Search for Another Location

Airport:

Trip Planner

Search our weather history database for the weather conditions in past years. The results will help you decide how hot, cold, wet, or windy it might be!

Date:

Astronomy

Jul. 05, 2013 Rise Set
Actual Time 6:09 AM CEST 9:28 PM CEST
Civil Twilight 5:33 AM CEST 10:03 PM CEST
Nautical Twilight 4:47 AM CEST 10:49 PM CEST
Astronomical Twilight 3:50 AM CEST 11:46 PM CEST
Moon 3:59 AM CEST (7/5) 7:08 PM CEST (7/5)
Length of Visible Light 16h 29m
Length of Day
15h 19m
Waning Crescent, 7% of the Moon is Illuminated
Jul 5
Waning Crescent
Jul 8
New
Jul 16
First Quarter
Jul 22
Full
Jul 29
Last Quarter

Hourly Weather History & Observations

Time (CEST) Temp. Heat Index Dew Point Humidity Pressure Visibility Wind Dir Wind Speed Gust Speed Precip Events Conditions
12:00 AM 73.4 °F - 53.6 °F 50% 30.15 in - Variable 3.5 mph - N/A   Clear
12:30 AM 73.4 °F - 53.6 °F 50% 30.15 in - NNE 12.7 mph - N/A   Clear
1:00 AM 71.6 °F - 53.6 °F 53% 30.15 in - NNE 11.5 mph - N/A   Clear
1:30 AM 71.6 °F - 53.6 °F 53% 30.18 in 6.2 mi NNE 12.7 mph - N/A   Unknown
2:00 AM 71 °F - 53 °F 43% 30.19 in 37 mi North 9.2 mph - -   Clear
2:00 AM 71.6 °F - 53.6 °F 53% 30.18 in 6.2 mi North 9.2 mph - N/A   Unknown
2:30 AM 69.8 °F - 53.6 °F 56% 30.18 in 6.2 mi North 13.8 mph - N/A   Unknown
3:00 AM 69.8 °F - 53.6 °F 56% 30.18 in 6.2 mi North 10.4 mph - N/A   Unknown
3:30 AM 69.8 °F - 53.6 °F 56% 30.18 in 6.2 mi North 15.0 mph - N/A   Unknown
4:00 AM 69.8 °F - 53.6 °F 56% 30.18 in 6.2 mi North 12.7 mph - N/A   Unknown
4:30 AM 69.8 °F - 53.6 °F 56% 30.18 in 6.2 mi North 11.5 mph - N/A   Unknown
5:00 AM 69.8 °F - 53.6 °F 56% 30.18 in - North 16.1 mph - N/A   Clear
5:30 AM 69.8 °F - 53.6 °F 56% 30.18 in - North 13.8 mph - N/A   Clear
6:00 AM 69.8 °F - 53.6 °F 56% 30.18 in - North 13.8 mph - N/A   Clear
6:30 AM 68.0 °F - 53.6 °F 60% 30.18 in - North 12.7 mph - N/A   Clear
7:00 AM 69.8 °F - 53.6 °F 56% 30.21 in - North 12.7 mph - N/A   Clear
7:30 AM 71.6 °F - 53.6 °F 53% 30.21 in - North 11.5 mph - N/A   Clear
7:42 AM 71.6 °F - 53.6 °F 53% 30.21 in - North 12.7 mph - N/A   Clear
8:00 AM 72 °F - 54 °F 42% 30.22 in 34 mi North 12.7 mph - -   Clear
8:04 AM 71.6 °F - 53.6 °F 53% 30.21 in - North 13.8 mph - N/A   Clear
8:30 AM 73.4 °F - 53.6 °F 50% 30.21 in - North 16.1 mph - N/A   Clear
9:00 AM 75.2 °F - 53.6 °F 47% 30.21 in - North 16.1 mph - N/A   Clear
9:30 AM 77.0 °F - 53.6 °F 44% 30.21 in - North 18.4 mph - N/A   Clear
9:39 AM 77.0 °F - 53.6 °F 44% 30.21 in - North 20.7 mph - N/A   Clear
10:00 AM 77.0 °F - 53.6 °F 44% 30.21 in - North 18.4 mph - N/A   Clear
10:30 AM 78.8 °F - 53.6 °F 42% 30.21 in - North 18.4 mph - N/A   Clear
11:00 AM 78.8 °F - 53.6 °F 42% 30.21 in - NNE 15.0 mph - N/A   Clear
11:09 AM 80.6 °F 80.3 °F 53.6 °F 39% 30.21 in - North 17.3 mph - N/A   Clear
11:30 AM 80.6 °F 80.3 °F 53.6 °F 39% 30.21 in - North 16.1 mph - N/A   Clear
12:00 PM 82.4 °F 81.4 °F 53.6 °F 37% 30.21 in - North 15.0 mph - N/A   Clear
12:05 PM 82.4 °F 81.7 °F 55.4 °F 39% 30.21 in - North 15.0 mph - N/A   Clear
12:30 PM 82.4 °F 81.4 °F 53.6 °F 37% 30.21 in - North 12.7 mph - N/A   Clear
1:00 PM 84.2 °F 82.8 °F 53.6 °F 35% 30.21 in - NNE 10.4 mph - N/A   Clear
1:35 PM 86.0 °F - 51.8 °F 31% 30.18 in - North 9.2 mph - N/A   Clear
2:00 PM 86 °F - 52 °F 21% 30.20 in 37 mi North 11.5 mph - -  
2:00 PM 86.0 °F 84.2 °F 53.6 °F 33% 30.18 in - North 9.2 mph - N/A   Clear
2:30 PM 87.8 °F 85.7 °F 53.6 °F 31% 30.18 in - NNE 9.2 mph - N/A   Clear
3:00 PM 87.8 °F - 51.8 °F 29% 30.18 in - North 8.1 mph - N/A   Clear
3:30 PM 87.8 °F - 51.8 °F 29% 30.15 in - NNE 5.8 mph - N/A   Clear
4:00 PM 89.6 °F - 51.8 °F 27% 30.15 in - NNE 8.1 mph - N/A   Clear
4:30 PM 89.6 °F - 51.8 °F 27% 30.15 in - NNE 6.9 mph - N/A   Clear
5:00 PM 87.8 °F 86.5 °F 57.2 °F 35% 30.15 in - South 5.8 mph - N/A   Clear
5:30 PM 87.8 °F 86.1 °F 55.4 °F 33% 30.15 in - South 8.1 mph - N/A   Clear
6:00 PM 86.0 °F 84.9 °F 57.2 °F 37% 30.12 in - SSW 6.9 mph - N/A   Clear
6:30 PM 84.2 °F 83.0 °F 55.4 °F 37% 30.12 in - SSW 9.2 mph - N/A   Clear
7:00 PM 84.2 °F 83.5 °F 57.2 °F 40% 30.12 in - SSW 8.1 mph - N/A   Clear
7:30 PM 84.2 °F 83.0 °F 55.4 °F 37% 30.12 in - SSW 5.8 mph - N/A   Clear
8:00 PM 83 °F - 56 °F 29% 30.16 in 37 mi SSW 5.8 mph - -  
8:00 PM 82.4 °F 81.7 °F 55.4 °F 39% 30.15 in - SSW 5.8 mph - N/A   Clear
8:30 PM 80.6 °F 80.8 °F 57.2 °F 45% 30.15 in - SSW 4.6 mph - N/A   Clear
9:00 PM 78.8 °F - 59.0 °F 51% 30.15 in - SW 4.6 mph - N/A   Clear
9:30 PM 78.8 °F - 57.2 °F 47% 30.15 in - South 4.6 mph - N/A   Clear
10:00 PM 77.0 °F - 59.0 °F 54% 30.18 in - SW 3.5 mph - N/A   Clear
10:30 PM 75.2 °F - 60.8 °F 61% 30.18 in - SSE 2.3 mph - N/A   Clear
11:00 PM 73.4 °F - 62.6 °F 69% 30.18 in - Variable 2.3 mph - N/A   Clear
11:30 PM 73.4 °F - 62.6 °F 69% 30.18 in - Variable 2.3 mph - N/A   Clear